Preview of NWS' New Version of Forecast
This preview is not operational and should not be used for support decisions.

Regional Weather Roundup (RWR)

Issued by Philadelphia/Mt Holly (PHI)

                            
000
ASUS41 KPHI 230712
RWRPHI

REGIONAL WEATHER ROUNDUP
NATIONAL WEATHER SERVICE MOUNT HOLLY NJ
300 AM EDT SAT MAR 23 2019

NOTE:  "FAIR" INDICATES FEW OR NO CLOUDS BELOW 12,000 FEET WITH NO
SIGNIFICANT WEATHER AND/OR OBSTRUCTIONS TO VISIBILITY.

 * = STATION DOES NOT REPORT PRECIPITATION (E.G. RAIN, SNOW, ETC.) 
        OR FOG.

NJZ015>026-230800-
SOUTHERN NEW JERSEY
  
CITY           SKY/WX    TMP DP  RH WIND       PRES   REMARKS
POMONA         FAIR      37  24  59 W23G37    29.71R WCI  26          
WILDWOOD*      FAIR      39  24  55 NW17G30   29.77R WCI  30          
MILLVILLE      FAIR      36  22  56 NW20G26   29.76R WCI  25          
MOUNT HOLLY    CLOUDY    38  21  50 NW17G36   29.71R WCI  28          
TRENTON        CLOUDY    36  23  59 W20G32    29.67R WCI  25          

$$
NJZ001>014-230800-
NORTHERN NEW JERSEY
  
CITY           SKY/WX    TMP DP  RH WIND       PRES   REMARKS
SUSSEX         CLOUDY    32  22  66 MISG      29.62R                  
ANDOVER*         N/A     31  19  61 W9G22     29.64R WCI  23          
MORRISTOWN     CLOUDY    34  21  60 W20G28    29.64R WCI  22          
NEWARK         CLOUDY    36  22  56 W23G35    29.62R WCI  24          
TETERBORO      FLURRIES  35  23  61 NW18G33   29.60R WCI  24          
CALDWELL       CLOUDY    34  21  59 NW18G31   29.63R WCI  23          
SOMERVILLE     CLOUDY    35  24  64 NW16G25   29.65R WCI  25          
ALLAIRE*       CLOUDY    37  24  59 W23G38    29.63R WCI  26          
TOMS RIVER*    CLOUDY    38  24  57 W25G33    29.66R WCI  27          

$$
PAZ043-044-047-054-055-060>062-066>071-230800-
EASTERN PENNSYLVANIA
  
CITY           SKY/WX    TMP DP  RH WIND       PRES   REMARKS
PHILADELPHIA   MOCLDY    37  21  52 W22G31    29.74R WCI  26          
NORTH PHILA    CLOUDY    38  21  50 NW21G31   29.72R WCI  28          
BLUE BELL*     CLOUDY    34  23  64 W15G26    29.73R WCI  24          
DOYLESTOWN     CLOUDY    35  21  56 NW14G31   29.68R WCI  26          
QUAKERTOWN*    CLOUDY    34  21  60 W15G29    29.71R WCI  24          
PERKASIE*      CLOUDY    34  21  60 NW16G32   29.71R WCI  23          
POTTSTOWN      CLOUDY    34  21  59 W15G29    29.74R WCI  24          
LANCASTER      CLOUDY    35  22  58 W25G32    29.79R WCI  23          
COATESVILLE    FAIR      32  23  69 NW24G32   29.75R WCI  19          
READING        CLOUDY    35  23  61 W21G28    29.76R WCI  24          
ALLENTOWN      CLOUDY    37  21  52 NW15G26   29.70R WCI  28          
MOUNT POCONO   LGT SNOW  23  20  88 W29G43    29.58R FOG     WCI   6  
HAZLETON       CLOUDY    30  19  64 W14G28    29.71R WCI  20          
LEHIGHTON      CLOUDY    34  21  60 W8G17     29.73R WCI  27          
WILKES BARRE   LGT SNOW  29  22  75 NW17G23   29.71S WCI  17          

$$
DEZALL-MDZ008-012-015-019-020-230800-
DELAWARE AND EASTERN MARYLAND
  
CITY           SKY/WX    TMP DP  RH WIND       PRES   REMARKS
WILMINGTON     FAIR      35  20  54 NW24G39   29.78R WCI  23          
DOVER          FAIR      38  22  52 W24G31    29.78R WCI  26          
GEORGETOWN     FAIR      42  22  44 NW18G30   29.80R                  
EASTON         FAIR      39  24  53 W21G35    29.88R WCI  29          
PATUXENT       FAIR      40  27  59 W21G35    29.86R WCI  30          
OCEAN CITY     FAIR      39  26  59 NW8       29.80R WCI  33          
WALLOPS ISLAND FAIR      43  25  49 W22G36    29.84R                  
CAMBRIDGE      PTCLDY    39  25  56 NW22G32   29.85R WCI  29          
SALISBURY      FAIR      40  26  57 W21G33    29.82R WCI  30          

$$
PAZ001-021-NYZ056-072-MDZ011-DCZ001-230800-
OTHER NEARBY LOCATIONS
  
CITY           SKY/WX    TMP DP  RH WIND       PRES   REMARKS
HARRISBURG     MOCLDY    34  22  61 NW23G32   29.82R WCI  22          
STATE COLLEGE  CLOUDY    29  19  65 NW25G39   29.87R WCI  14          
WILLIAMSPORT   CLOUDY    32  17  54 W18G28    29.81R WCI  20          
BINGHAMTON     LGT SNOW  23  19  85 NW16G30   29.65R FOG     WCI  10  
NEW YORK CITY  CLOUDY    36  22  56 W13G29    29.62R WCI  27          
BALTIMORE      FAIR      36  22  56 W18G26    29.85R WCI  26          
WASHINGTON DC  FAIR      40  22  48 NW16G35   29.89R WCI  31          

$$